Tracking 22130 objects as of 21-Jan-2021
HD Live streaming from Space Station
objects crossing your sky now

STARLINK-1648

Track STARLINK-1648 now!
10-day predictions
STARLINK-1648 is classified as:


NORAD ID: 46533
Int'l Code: 2020-070B
Perigee: 555.3 km
Apogee: 558.4 km
Inclination: 53.0 °
Period: 95.6 minutes
Semi major axis: 6927 km
RCS: Unknown
Launch date: October 6, 2020
Source: United States (US)
Launch site: AIR FORCE EASTERN TEST RANGE (AFETR)
aabbcc
Your satellite tracking list
Your tracking list is empty




NASA's NSSDC Master Catalog

Two Line Element Set (TLE):
1 46533U 20070B   21021.58335648  .00023589  00000-0  16327-2 0  9996
2 46533  53.0018 305.3196 0002280  73.3619 286.9599 15.05580342  1763
Source of the keplerian elements: AFSPC